THORAD DELTA 1 DEB, 17023

Orbit data source: Space-Track

THORAD DELTA 1 DEB, 17023 is space debris in SSO originally from a launch on Fri, 15 Nov 1974 UTC launched from the Air Force Western Test Range (AFWTR). Debris objects in space refer to the collection of defunct objects orbiting the Earth. Examples of debris include non-operational satellites, rocket bodies, and fragments generated from explosions, collisions, or faulty payload assembly.

Loading next visibility...
Identifier
17023, 1974-089EW
Orbit
SSO
Country
Flag of USUS
Related business
Manufacturer
Unknown
Mission
Spacecraft
Bus & Motor
Unknown
Mass
Unknown
Launch date (UTC)
1974-11-15 (51 years ago)
Launch vehicle
Unknown
Launch site
Air Force Western Test Range (AFWTR)
Object type
Payload
Rocket body
Debris
Shape & HBR
Unknown shape, 0.1 m
Radar Cross Section
Small (<0.1 m²)

Expand to show TLE details & history
Last TLE update: 2 days ago

TLE from 2 days ago
0 THORAD DELTA 1 DEB
1 17023U 74089EW  25285.42052286  .00000145  00000-0  10202-2 0  9999
2 17023 101.4763 249.7845 0053764  50.2337  76.3854 12.64602298877387
Epoch: 2025-10-12T10:05Z
TLE epoch observation values (Epoch: 2025-10-12T10:05:33.175Z)
Latitude
51.39312°
Longitude
-88.18651°
Altitude
1,402.443 km
Speed
7.168 km/s
True Right ascension
05h 37m 45s
True Declination
51° 14' 21"
Sunlit
Object was in daylight at epoch
Visualization orbit readout
Latitude
Unknown
Longitude
Unknown
Altitude
Unknown
Speed
Unknown
Apparent Right ascension
Unknown
Apparent Declination
Unknown
Sunlit
N/A
Visualization observer readout
Local Sidereal Time
13:50:14
Azimuth
Unknown
Elevation
Unknown
Doppler factor
Unknown
Orbital elements
Apogee altitude
1,443.344 km
Perigee altitude
1,359.691 km
Semi-major axis
7,779.654 km
Eccentricity
0.00538
Inclination
101.4763°
RAAN
249.7845°
Arg. of periapsis
50.2337°
True anomaly
76.98512°
Mean anomaly
76.3854°
Eccentric anomaly
76.68516°
Mean motion
3.16303 °/min
Orbital period
113.82 mins
BSTAR
0.0010202
Loading maneuver chart data...
Computing Atmospheric mass density...

Documentation

Showing up to 5 results
|